Probability
0 0 0 0 0 0 0 0 0 0 0 0 0 0 0 0 0 0 0 0 0 0 0 0 0 0 0 0 0 0 0 0 0 0 0 0 0 0 0 0 1 2 2 1 0 0 0 1 1
0 0 0 0 0 0 0 0 0 0 0 0 0 0 0 0 0 0 0 0 0 0 0 0 0 0 0 0 0 0 0 0 0 0 0 0 0 0 0 0 1 1 1 0 0 0 0 0 1
0 0 0 0 0 0 0 0 0 0 0 0 0 0 0 0 0 0 0 0 0 0 0 0 0 0 0 0 0 0 0 0 0 0 0 0 0 0 0 0 0 1 1 0 0 0 0 0 0
0 0 0 0 0 0 0 0 0 0 0 0 0 0 0 0 0 0 0 0 0 0 0 0 0 0 0 0 0 0 0 0 0 0 0 0 0 0 0 0 0 0 1 0 0 0 0 0 0
0 0 0 0 0 0 0 0 0 0 0 0 0 0 0 0 0 0 0 0 0 0 0 0 0 0 0 0 0 0 0 0 0 0 0 0 0 0 0 0 0 0 0 0 0 0 1 0 0
0 0 0 0 0 0 0 0 0 0 0 0 0 0 0 0 0 0 0 0 0 0 0 0 0 0 0 0 0 0 0 0 0 0 0 0 0 0 0 0 0 0 0 0 0 0 0 0 0
0 0 0 0 0 0 0 0 0 0 0 0 0 0 0 0 0 0 0 0 0 0 0 0 0 0 0 0 0 0 0 0 0 0 0 0 0 0 0 0 0 0 0 0 0 0 0 0 0
0 0 0 0 0 0 0 0 0 0 0 0 0 0 0 0 0 0 0 0 0 0 0 0 0 0 0 0 0 0 0 0 0 0 0 0 0 0 0 0 0 0 0 0 0 0 0 0 0
0 0 0 0 0 0 0 0 0 0 0 0 0 0 0 0 0 0 0 0 0 0 0 0 0 0 0 0 0 0 0 0 0 0 0 0 0 0 0 0 0 0 0 0 0 0 0 0 0
0 0 0 0 0 0 0 0 0 0 0 0 0 0 0 0 0 0 0 0 0 0 0 0 0 0 0 0 0 0 0 0 0 0 0 0 0 0 0 0 0 0 0 0 0 0 0 0 0
0 0 0 0 0 0 0 0 0 0 0 0 0 0 0 0 0 0 0 0 0 0 0 0 0 0 0 0 0 0 0 0 0 0 0 0 0 0 0 0 0 0 0 0 0 0 0 0 1
0 0 0 0 0 0 0 0 0 0 0 0 0 0 0 0 0 0 0 0 0 0 0 1 1 0 0 0 0 0 0 0 0 0 0 0 0 0 0 0 0 0 0 0 0 0 0 1 2
0 0 0 0 0 0 0 0 0 0 0 0 0 0 0 0 0 0 0 0 0 0 1 2 2 1 1 1 0 0 0 0 0 0 0 0 0 0 0 0 0 0 0 0 0 0 1 2 3
0 0 0 0 0 0 0 0 0 0 0 0 0 0 0 0 0 0 0 0 0 0 1 2 3 2 1 1 0 0 0 0 0 0 0 0 0 0 0 0 0 0 0 0 0 0 1 2 2
0 0 0 0 0 0 0 0 0 0 0 0 0 0 0 0 0 0 0 0 0 0 1 2 3 3 2 1 0 0 0 0 0 0 0 0 0 0 0 0 0 0 0 0 0 0 0 1 1
0 0 0 0 0 0 0 0 0 0 0 0 0 0 0 0 0 0 0 0 0 0 1 2 3 3 3 2 1 1 0 0 0 0 0 0 0 0 0 0 0 0 0 0 0 0 0 0 1
0 0 0 0 0 0 0 0 0 0 0 0 0 0 0 0 0 0 0 0 0 0 1 2 3 3 3 3 3 2 1 1 1 0 0 0 0 0 0 0 0 0 0 0 0 0 0 1 2
0 0 0 0 0 0 0 0 0 0 0 0 0 0 0 0 0 0 0 0 0 0 0 1 3 3 3 3 3 3 3 2 2 1 1 1 1 0 0 0 0 0 0 0 0 0 0 1 2
0 0 0 0 0 0 0 0 0 0 0 0 0 0 0 0 0 0 0 0 0 0 0 1 2 3 3 3 3 3 3 3 3 3 2 2 2 1 0 1 1 2 1 0 0 0 0 0 1
0 0 0 0 0 0 0 0 0 0 0 0 0 0 0 0 0 0 0 0 0 0 0 1 3 3 3 3 3 3 1 1 2 3 3 3 3 2 2 2 3 3 2 1 0 0 0 0 0
0 0 0 0 0 0 0 0 0 0 0 0 0 0 0 0 0 0 0 1 1 1 1 2 3 3 3 3 3 3 1 1 2 3 3 3 3 3 3 3 3 3 2 1 0 0 0 0 0
0 0 0 0 0 0 0 0 0 0 0 0 0 0 0 0 0 0 1 2 2 2 3 3 3 3 3 3 3 3 3 2 2 2 2 3 3 3 3 3 3 3 2 1 0 0 0 0 0
0 0 0 0 0 0 0 0 0 0 0 0 0 0 0 0 0 0 1 2 3 3 3 3 4 4 4 3 2 2 2 2 1 1 1 1 2 2 2 2 1 1 1 1 0 0 0 0 0
0 0 0 0 0 0 0 0 0 0 0 0 0 0 0 0 0 1 1 3 4 4 3 3 4 4 3 2 1 1 1 1 0 0 0 0 1 1 1 1 0 0 0 0 0 0 0 0 0
0 0 0 0 0 0 0 0 0 0 0 0 0 0 0 0 0 1 2 3 4 4 3 2 2 2 1 1 0 0 0 0 0 0 0 0 0 0 0 0 0 0 0 0 0 0 0 0 0
0 0 0 0 0 0 0 0 0 0 0 0 0 0 0 0 0 1 1 2 3 2 1 1 0 0 1 1 1 1 0 0 0 0 0 0 0 0 0 0 0 0 0 0 0 0 0 0 0
0 0 0 0 0 0 0 0 0 0 0 0 0 0 0 0 0 0 0 1 1 0 0 0 0 0 1 2 2 2 1 0 0 0 0 0 0 0 0 0 0 0 0 0 0 0 0 0 0
0 0 0 0 0 0 0 0 0 0 0 0 0 0 0 0 0 0 0 0 0 0 0 0 0 0 0 1 1 1 1 0 0 0 0 0 0 0 0 0 0 0 1 1 1 0 0 0 0
0 0 0 0 0 0 0 0 0 0 0 0 0 0 0 0 0 0 0 0 0 0 0 0 0 0 0 0 0 0 0 0 0 0 0 0 0 0 0 0 0 0 1 1 1 1 0 0 0
0 0 0 0 0 0 0 0 0 0 0 0 0 0 0 0 0 0 0 0 0 0 0 0 0 0 0 0 0 0 0 0 0 0 0 0 0 0 0 0 0 0 0 1 1 1 1 0 0
Wind_Speed
4 2 2 2 2 3 7 5 4 4 4 6 6 5 6 7 6 6 4 2 3 3 4 4 5 6 6 6 6 6 6 6 6 6 6 6 6 6 6 6 6 7 6 6 5 6 6 6 6
1 1 2 2 1 5 6 5 5 6 5 4 4 4 5 7 6 5 4 3 3 4 4 6 6 5 6 6 7 7 6 6 7 7 6 6 6 6 6 7 7 7 6 6 5 6 6 7 6
2 2 2 0 3 5 7 6 6 7 4 2 3 4 5 5 4 4 4 3 3 4 4 7 6 6 6 6 7 7 7 7 7 7 7 7 7 6 7 7 7 7 6 6 6 6 6 6 6
2 2 1 3 9 7 6 6 5 6 4 4 4 5 6 5 4 5 5 4 4 4 5 7 6 7 6 6 7 8 7 7 7 7 7 7 7 7 7 7 7 7 7 7 6 6 7 7 6
1 1 3 6 8 6 5 4 3 3 4 4 4 6 7 5 5 6 5 4 5 5 5 7 7 7 6 6 7 7 8 8 8 8 8 8 7 7 7 7 7 7 7 7 7 7 7 7 6
1 1 3 6 8 6 5 4 4 5 6 5 5 6 6 6 5 5 5 5 5 5 4 6 7 7 7 8 7 7 8 9 9 9 9 9 8 8 8 8 8 8 8 8 8 7 7 7 6
1 2 5 7 7 6 5 3 3 4 5 4 3 4 6 6 5 5 5 4 4 4 4 4 5 6 7 7 8 8 9 9 10 10 10 9 9 9 9 8 8 8 7 8 7 7 7 7 7
1 2 6 5 5 6 4 3 3 3 5 4 1 3 5 6 5 5 5 4 4 4 4 4 5 5 5 7 9 8 9 9 9 9 9 8 8 9 8 8 9 9 9 9 8 8 7 7 7
2 3 5 5 4 5 4 4 4 3 4 4 3 4 6 7 6 5 5 5 5 4 4 4 4 5 5 6 7 6 7 6 5 7 7 3 5 7 7 11 10 10 10 10 9 9 7 6 7
1 4 5 4 3 4 4 3 3 4 4 5 5 6 6 7 6 5 4 4 5 5 4 4 4 4 5 4 4 3 4 4 4 5 5 4 5 6 6 9 9 9 9 8 8 6 4 2 4
3 5 5 4 3 3 4 3 2 2 3 3 4 7 7 7 6 4 4 4 4 4 4 4 4 4 4 3 3 3 3 3 4 5 5 4 4 3 3 3 4 5 4 5 5 2 3 4 4
5 5 3 4 3 3 3 3 3 2 2 3 4 5 7 6 5 4 4 4 4 4 4 4 3 4 4 4 3 3 3 3 3 3 5 3 3 3 4 3 4 3 3 3 3 3 5 5 6
5 4 3 3 3 2 3 3 2 2 2 3 5 5 6 5 5 4 3 3 3 4 4 4 3 3 4 4 2 3 3 3 3 3 3 4 3 3 3 3 3 4 3 3 3 4 6 6 6
4 4 3 2 3 3 4 3 2 2 4 5 5 6 5 5 4 4 4 3 3 3 3 4 3 3 3 3 2 3 3 2 3 3 3 4 3 3 3 4 4 4 4 4 3 5 5 5 5
4 4 4 2 2 3 3 3 2 3 4 5 5 5 5 4 4 4 3 3 3 3 3 4 3 3 3 3 3 2 2 2 2 3 3 4 3 3 3 3 3 3 3 3 4 5 4 5 5
4 3 3 3 1 2 4 1 3 4 5 4 4 5 5 5 4 4 3 3 3 3 4 4 3 3 3 2 2 2 2 2 2 2 3 4 4 4 3 3 3 3 3 3 3 4 4 4 4
4 2 1 2 2 2 3 1 2 4 5 5 5 5 5 5 5 4 3 3 3 3 3 4 4 3 3 3 2 2 2 2 2 2 3 3 4 3 3 3 2 3 2 3 3 4 3 4 4
2 2 2 1 2 3 4 3 2 4 5 5 5 5 5 5 4 3 3 3 3 3 3 4 4 4 4 2 2 2 2 2 2 2 3 3 3 3 3 2 2 3 2 2 3 4 3 3 3
2 3 3 1 1 3 5 5 3 4 6 6 5 6 5 5 4 3 3 3 4 4 4 4 4 5 4 3 2 2 2 2 2 2 3 2 2 2 3 1 2 2 2 2 3 3 4 3 2
5 5 3 1 1 4 5 5 4 4 5 5 5 5 5 5 5 5 4 4 4 4 5 5 4 4 4 2 2 2 2 1 2 2 2 2 2 2 1 1 1 2 1 2 2 2 1 2 0
7 6 4 3 2 5 5 5 4 3 4 4 5 4 4 5 5 6 5 4 4 4 4 3 4 4 4 4 2 2 2 2 2 2 2 1 2 1 1 1 1 1 1 1 1 1 1 1 1
5 3 5 5 5 3 4 4 2 3 4 5 5 5 4 5 5 4 5 5 5 4 4 4 4 4 4 4 4 4 2 2 1 1 1 2 2 1 1 1 1 1 1 1 1 0 0 1 0
2 1 3 5 6 6 5 6 1 3 4 4 4 5 4 5 5 5 5 5 4 4 4 3 4 4 4 4 4 4 3 2 1 1 2 1 1 1 1 1 1 1 1 1 1 1 1 0 0
3 3 3 4 6 6 3 5 2 1 1 1 3 5 5 5 5 5 5 4 4 4 4 3 4 4 4 4 4 4 3 3 3 2 1 1 1 1 1 1 2 2 1 2 1 1 1 1 0
6 6 4 5 5 3 1 5 2 2 1 2 2 4 5 5 6 6 6 5 5 5 4 4 4 4 4 4 4 3 3 3 3 2 2 1 1 1 1 2 2 2 2 2 2 2 2 2 2
6 7 5 4 3 2 4 5 0 2 0 2 2 3 5 5 5 5 6 6 5 5 5 4 4 4 4 4 4 3 3 2 1 2 1 2 1 1 1 2 2 2 3 3 3 2 2 2 2
5 6 5 6 5 6 4 3 2 3 2 2 3 3 5 5 5 5 5 5 5 5 5 5 5 4 4 4 4 3 3 3 2 2 2 1 1 1 2 3 3 2 3 3 3 3 3 2 2
4 2 4 6 5 6 5 5 2 2 1 2 3 4 4 5 5 5 5 5 5 5 5 5 5 4 4 4 3 3 3 3 2 3 2 2 2 2 2 4 4 3 4 4 3 3 2 3 2
5 6 6 6 6 6 5 1 3 1 1 1 2 3 4 5 5 5 5 5 5 5 5 5 5 4 4 4 4 4 4 3 3 3 3 2 3 3 3 4 4 4 4 4 4 4 4 4 3
6 6 8 7 7 7 7 2 4 0 1 1 2 2 3 4 4 4 5 5 6 6 6 5 5 5 4 4 4 4 3 4 4 3 3 3 3 3 3 3 4 4 4 4 4 4 4 4 4
Wind_Direction
162 171 215 234 210 100 80 77 73 78 69 59 54 52 55 42 27 56 75 60 38 50 45 57 45 42 45 49 52 52 62 67 66 66 69 70 70 65 72 79 85 83 78 78 81 86 89 89 90
151 184 230 243 225 106 87 82 82 66 78 87 70 62 67 66 55 78 96 78 58 56 51 50 47 45 48 51 51 54 62 65 66 65 67 67 68 64 72 79 85 84 82 78 78 82 86 85 85
150 240 274 7 71 73 92 89 87 89 91 82 76 56 45 61 70 81 85 98 81 66 62 61 45 52 54 56 54 55 61 59 65 69 71 71 71 72 75 76 85 93 93 86 80 76 79 81 83
207 206 182 91 86 69 82 96 104 109 93 74 89 87 77 58 65 88 102 99 89 79 70 69 46 54 57 58 61 57 61 60 59 65 68 70 68 71 74 77 81 88 91 89 84 79 76 77 76
232 230 119 102 88 82 81 79 109 96 87 84 85 91 90 82 92 102 107 93 81 75 75 78 56 54 58 63 64 64 63 64 63 63 65 68 65 67 70 73 77 78 80 83 83 79 76 77 75
194 190 121 104 99 96 92 103 114 94 96 98 96 97 93 110 112 106 101 93 84 80 83 92 84 62 59 62 67 66 66 66 66 66 65 66 64 67 70 71 76 78 76 78 82 82 78 79 79
54 89 99 109 112 109 92 95 97 97 100 89 93 99 112 119 113 116 108 98 89 86 85 82 89 97 90 75 68 70 68 67 65 66 67 66 68 70 70 71 74 76 75 77 77 83 81 76 71
19 121 118 112 116 103 101 106 83 76 86 90 104 100 115 125 130 129 120 114 104 97 89 80 81 76 81 89 81 72 69 66 68 70 69 73 85 83 77 78 72 69 70 70 73 75 78 73 70
232 135 110 108 114 108 122 124 101 95 114 116 94 80 100 126 142 143 135 126 113 105 98 95 89 82 78 78 89 92 91 79 94 95 85 81 79 78 79 66 68 67 66 66 67 69 74 85 86
159 101 93 92 107 113 124 116 114 141 126 123 120 118 125 142 151 148 139 125 114 109 99 89 89 88 83 79 89 81 80 78 66 68 69 63 65 66 69 83 74 72 73 77 72 77 97 100 89
90 91 103 109 107 118 127 120 122 144 114 120 131 138 146 153 155 150 137 114 101 101 104 101 95 90 86 88 77 70 67 68 67 64 70 65 71 82 74 84 96 89 87 77 87 94 70 71 64
105 96 110 116 121 134 126 125 119 99 81 99 123 137 151 160 158 155 139 125 125 115 112 109 104 99 90 87 82 76 71 66 63 59 63 63 63 59 64 63 59 60 63 57 51 55 75 72 71
111 104 102 116 131 133 129 128 115 98 107 126 137 148 157 158 154 150 141 136 133 127 129 117 116 101 98 90 86 82 71 59 70 56 58 67 68 66 68 66 57 54 55 56 44 57 75 68 63
107 122 124 128 136 142 135 124 144 127 138 147 158 163 163 160 162 159 160 159 151 149 141 137 140 126 120 114 103 78 69 77 60 66 64 71 75 75 70 68 59 54 49 46 47 59 68 67 63
140 142 141 136 144 143 170 141 140 139 164 167 171 168 167 170 174 181 167 172 167 156 150 141 140 141 134 113 95 85 78 67 67 67 66 75 71 73 71 68 70 67 66 65 56 61 59 69 70
179 187 150 121 146 168 234 152 127 160 189 186 186 177 180 187 195 186 183 185 178 170 158 148 155 161 141 128 120 98 86 75 73 71 59 65 70 65 66 69 72 74 68 66 66 61 63 68 67
194 196 128 136 166 200 238 259 165 188 208 205 199 192 188 188 196 192 188 193 188 186 178 162 156 159 147 140 135 105 90 86 77 76 68 60 65 67 77 67 71 81 73 69 71 67 64 69 68
194 219 213 212 154 237 246 255 212 199 220 222 208 206 198 200 196 182 185 191 188 191 193 173 154 173 150 157 154 126 102 94 85 80 81 67 63 66 79 90 92 88 87 80 83 87 77 71 71
258 262 261 256 181 254 262 269 244 209 215 222 214 210 207 200 186 172 173 176 179 184 190 177 173 169 164 166 168 146 124 113 98 76 72 81 75 71 76 75 74 78 86 93 102 104 108 103 92
243 253 260 233 166 251 274 272 246 224 221 226 225 213 206 194 181 176 178 173 175 178 188 181 179 171 169 170 158 146 121 106 85 94 108 99 89 82 85 100 100 99 88 98 102 121 113 99 77
244 258 272 288 267 226 270 247 202 197 203 209 222 222 209 200 194 180 176 173 174 182 187 181 174 170 173 170 158 144 131 146 144 136 110 97 100 108 112 94 108 111 113 105 121 147 143 122 98
245 264 262 253 260 260 268 286 205 193 200 201 207 210 206 193 192 183 176 173 178 177 179 179 165 169 165 167 172 171 179 174 145 131 127 137 139 139 134 127 138 140 129 139 151 98 256 229 161
277 289 250 255 264 268 241 267 204 173 214 211 205 201 199 188 182 178 175 175 172 161 164 174 164 163 158 173 170 189 185 175 150 161 157 162 136 154 163 164 180 185 170 173 167 166 278 217 272
180 200 202 232 246 252 258 263 262 152 268 245 199 192 189 184 177 172 166 164 158 155 155 164 166 160 160 178 184 191 181 186 176 186 180 179 155 175 175 208 205 202 204 184 199 194 200 253 239
213 240 237 223 220 243 158 255 267 30 339 279 239 193 183 181 177 171 167 168 163 163 164 165 168 170 173 186 197 192 192 193 186 183 186 211 203 195 190 216 219 213 210 198 204 215 221 215 222
223 246 261 278 272 264 205 246 174 59 329 241 211 184 172 173 176 173 171 171 168 168 172 175 174 175 177 189 193 193 183 197 181 186 199 222 232 235 230 224 229 217 211 208 204 228 223 234 225
222 233 279 281 277 272 238 227 207 162 164 172 173 173 173 172 173 172 169 171 169 169 172 177 177 177 180 188 189 191 191 196 200 208 207 220 234 238 234 239 241 230 228 227 219 231 223 234 246
280 220 219 245 266 264 252 243 224 160 159 165 171 183 179 176 180 177 173 173 171 170 173 177 182 180 180 187 193 199 198 199 216 221 220 234 244 249 242 238 236 231 230 225 226 237 237 235 228
189 205 231 245 257 271 273 223 59 23 357 263 206 195 188 187 188 184 181 178 175 173 176 182 187 190 189 199 200 203 199 204 204 217 215 234 247 246 246 245 246 236 230 227 218 231 224 231 224
258 241 233 246 242 251 275 276 93 76 327 286 265 219 206 199 194 190 186 184 184 187 190 193 194 195 198 206 209 212 204 217 217 213 218 236 252 258 254 249 244 234 231 232 232 228 224 229 236